Regional Weather Roundup
Issued by NWS Kansas City/Pleasant Hill, MO

Home | Current Version | Previous Version | Text Only | Print | Product List | Glossary On
Versions: 1 2 3 4 5 6 7 8 9 10 11 12 13 14 15 16 17 18 19 20 21 22 23 24 25 26 27 28 29 30 31 32 33 34 35 36 37 38 39 40 41 42 43 44 45 46 47 48 49 50
000
ASUS43 KEAX 170111
RWREAX

WEATHER ROUNDUP FOR EASTERN KANSAS AND NORTHWEST MISSOURI
NATIONAL WEATHER SERVICE KANSAS CITY/PLEASANT HILL MO
800 PM CDT WED APR 16 2014

KSZ040-057-103>105-MOZ028-029-037-043-170200-
...KANSAS CITY METROPOLITAN AREA...

CITY           SKY/WX    TMP DP  RH WIND       PRES   REMARKS
K.C. INTL      MOCLDY    59  31  34 S21       29.86S
K.C. DOWNTOWN  MOCLDY    61  32  33 S15       29.89R
LEES SUMMIT    PTCLDY    60  30  32 S13G24    29.91R
OLATHE - IXD   PTCLDY    58  32  37 S14       29.91R
OLATHE - OJC   PTCLDY    58  31  35 S13G22    29.90R
LAWRENCE       MOCLDY    61  34  36 S18G26    29.87R

$$

MOZ001>008-011>017-020>025-030>033-038>040-044>046-053-054-170200-
...NORTHERN AND CENTRAL MISSOURI...

CITY           SKY/WX    TMP DP  RH WIND       PRES   REMARKS
ST. JOSEPH     MOCLDY    61  34  36 NW20G36   29.89R
MOSBY          FAIR      61  32  33 S14G21    29.89R
WARRENSBURG    PTCLDY   N/A N/A N/A S8        29.95R
WHITEMAN AFB   PTCLDY    59  29  31 SW13      29.94R
CLINTON        CLEAR     61  34  36 SW9       29.97R
SEDALIA        CLEAR     58  31  35 S13       29.97R
WARSAW         NOT AVBL
MARSHALL         N/A     64  36  34 S20G26    29.94
CHILLICOTHE      N/A     61  32  33 S13       29.89S
MOBERLY        PTCLDY    57  27  30 S13G18    29.97R
KIRKSVILLE     PTCLDY    56  29  35 S21G28    29.92S

$$

MOZ041-047>049-056>058-063>065-088>090-097-170200-
...EASTERN AND SOUTHERN MISSOURI...

CITY           SKY/WX    TMP DP  RH WIND       PRES   REMARKS
ST. LOUIS INTL MOCLDY    54  23  30 SE18      30.06R
SPIRIT OF STL  PTCLDY    54  21  27 SE7G17    30.05R
COLUMBIA       MOCLDY    54  27  35 S15       30.00R
JEFFERSON CITY MOCLDY    58  24  27 S16       30.01R
MEXICO         PTCLDY    52  32  46 S10       30.01R
HANNIBAL       PTCLDY    55  18  22 S9        30.01R
ROLLA          PTCLDY    51  27  39 S15       30.01R
LEBANON        PTCLDY    52  25  35 S9        30.02R
OSAGE BEACH    MOCLDY    55  25  30 S13G18    30.02R
SPRINGFIELD    PTCLDY    56  26  31 S10       30.00R
BRANSON        PTCLDY    55  28  35 SE8       30.02S
NEVADA         CLEAR     55  34  44 S10       29.98R
JOPLIN         CLEAR     57  30  35 S9        29.99R
WEST PLAINS    CLEAR     50  28  42 SE7       30.07R
MALDEN         MOCLDY    52  37  58 CALM      30.13S

$$

IAZ060-094-KSZ022-034>040-054-083-096-NEZ052-066-093-170200-
...KANSAS...SOUTHEAST NEBRASKA AND IOWA...

CITY           SKY/WX    TMP DP  RH WIND       PRES   REMARKS
TOPEKA         CLOUDY    67  31  26 S9        29.85R
MANHATTAN      PTCLDY    56  36  47 N9G25     29.92R
EMPORIA        PTCLDY    62  31  31 S13       29.87R
CHANUTE        CLEAR     58  34  40 S15       29.94R
WICHITA        MOCLDY    62  31  31 SW7       29.87R
OMAHA          CLOUDY    40  31  70 NW25G35   29.93R WCI  29
LINCOLN        PTCLDY    42  29  59 N22G31    29.99R WCI  33
FALLS CITY     CLOUDY    50  34  54 NW21G33   29.90
LAMONI         CLOUDY    59  32  36 S20G31    29.81R
DES MOINES     MOCLDY    62  32  32 S22G28    29.78R

$$




USA.gov is the U.S. government's official web portal to all federal, state and local government web resources and services.